Wind_Speed
26 30 32 36 38 40 40 40 41 42 43 44 45 47 48 48 49 51 52 53 53 52 52 51 50 49 48 48 47 46 45 46 45 45 44 44 44 43 43 42 42 41 40 39
24 27 30 33 35 38 39 39 40 41 42 42 43 45 47 48 48 49 51 51 51 52 51 51 51 51 50 50 49 48 47 47 47 47 47 46 46 46 46 45 44 43 43 42
21 24 28 31 34 35 37 38 39 39 39 41 42 43 44 47 48 48 49 50 50 51 51 51 51 52 52 51 50 50 49 49 49 49 49 49 49 48 48 47 46 45 45 44
17 22 26 29 31 33 34 36 36 37 38 40 42 42 41 43 45 47 47 49 49 49 50 50 50 52 52 52 51 50 50 50 50 50 51 51 50 50 49 48 48 47 47 46
15 20 23 26 29 31 31 33 34 34 36 38 40 41 39 39 41 42 44 45 47 48 49 50 50 52 52 52 52 52 51 51 51 51 51 51 51 51 51 50 50 49 48 48
13 17 21 24 27 29 28 29 31 32 34 36 37 39 38 37 36 38 40 42 44 46 48 49 50 51 51 51 51 51 52 52 52 51 51 51 51 51 51 51 50 50 50 50
12 15 18 21 25 27 27 28 29 31 33 35 35 37 36 34 35 36 37 40 41 44 45 46 47 49 50 51 51 51 51 52 52 52 51 51 51 51 51 51 51 51 51 51
11 14 17 20 23 25 26 27 28 30 32 32 32 34 33 33 33 35 36 37 39 41 43 44 45 46 48 49 50 50 51 51 51 52 52 51 51 51 51 51 51 51 51 51
10 13 16 19 22 24 25 26 27 28 30 30 31 31 31 31 32 34 35 36 37 39 40 42 43 44 46 47 48 49 50 50 50 51 51 51 51 51 51 51 51 51 51 51
10 13 16 18 21 24 24 24 25 27 29 29 30 30 30 30 31 32 33 35 36 37 38 40 41 42 43 45 46 47 48 49 49 49 49 50 50 50 50 51 51 51 50 50
11 13 16 18 20 21 24 24 25 27 29 29 29 28 28 29 30 31 31 33 34 35 37 38 40 41 42 43 45 46 47 47 48 48 48 49 49 49 50 50 49 49 49 49
12 14 16 18 20 22 24 24 26 28 29 29 30 28 27 27 28 29 31 32 33 34 35 36 37 38 39 41 43 44 45 46 46 47 47 48 48 49 49 48 48 48 48 47
14 16 17 19 21 21 23 24 25 26 28 29 30 28 26 26 28 29 30 32 33 33 34 34 35 37 38 39 40 42 43 44 45 46 46 46 47 47 47 47 47 47 47 47
16 17 18 19 21 22 23 24 26 27 28 28 28 26 25 26 28 30 31 32 33 34 34 34 35 35 37 38 39 40 41 42 43 43 44 44 44 45 45 45 46 46 46 46
18 19 20 21 22 23 24 25 26 27 27 28 26 26 24 26 28 30 31 32 32 33 33 33 33 34 35 36 37 38 39 40 41 41 42 42 42 42 43 43 44 44 44 44
19 21 22 23 24 25 26 26 27 27 28 28 27 25 25 27 27 28 30 31 31 32 32 33 33 33 34 34 35 36 37 37 38 39 39 40 40 40 41 41 41 41 40 41
19 20 22 23 24 26 26 25 26 28 27 29 29 26 27 27 28 28 29 30 30 31 31 32 33 33 33 33 34 34 34 35 36 36 37 37 38 38 38 38 38 38 38 38
19 21 22 23 24 26 24 24 26 27 27 28 28 28 28 28 28 28 28 29 29 29 30 32 33 33 33 33 33 33 33 33 34 34 35 35 35 36 36 37 37 36 36 35
21 22 23 23 24 24 22 23 24 26 27 27 27 27 28 28 27 27 28 28 28 29 30 30 31 32 32 32 32 32 32 32 32 32 32 32 33 33 33 33 34 34 34 33
22 23 24 24 25 25 22 23 24 24 25 25 26 26 26 26 26 27 27 27 27 28 28 28 29 30 30 30 30 30 30 30 30 30 31 31 31 31 31 31 31 31 31 31
23 23 24 25 26 25 24 24 23 23 23 23 24 25 25 25 26 26 27 27 27 27 26 27 27 28 28 28 29 29 29 29 29 29 29 29 30 30 30 30 30 29 29 29
24 24 24 25 25 24 23 23 24 24 24 24 24 24 24 24 24 25 26 26 26 26 26 26 26 26 27 27 27 28 28 28 28 28 28 28 28 29 29 29 29 29 29 29
25 24 24 24 24 24 24 23 24 24 24 24 24 24 24 23 23 24 24 25 25 25 25 26 26 26 26 27 27 27 27 28 28 28 28 28 28 28 28 28 28 28 28 28
25 24 24 24 23 24 24 23 24 24 24 24 24 24 24 24 24 24 23 23 24 24 25 26 26 26 27 27 27 27 27 27 28 28 28 28 28 28 27 27 27 27 27 27
25 24 23 23 24 25 25 24 24 25 25 25 24 24 23 24 24 24 24 24 24 24 24 25 26 26 27 27 27 27 28 28 28 27 27 27 27 26 26 27 27 27 27 27
24 23 23 22 23 24 25 25 24 24 24 24 24 23 23 23 24 24 24 24 24 24 24 24 24 25 26 26 26 26 27 27 27 27 27 27 27 27 27 27 28 28 27 27
Wind_Direction
185 190 195 200 204 206 207 210 213 214 216 218 220 220 220 221 222 223 225 227 229 230 231 232 233 235 236 238 240 241 242 243 244 246 246 248 250 253 255 257 259 262 265 268
185 191 195 200 203 206 207 211 213 215 217 220 221 222 223 223 223 225 226 228 231 231 232 234 235 236 238 239 240 242 243 245 246 247 248 249 251 252 254 256 259 261 264 267
187 193 197 201 204 207 209 212 214 217 219 221 223 224 225 226 227 227 227 228 230 233 233 234 235 236 238 240 242 243 244 245 247 248 248 250 251 253 254 255 257 260 263 266
188 193 198 202 205 208 210 212 215 218 221 223 224 226 225 227 229 230 230 230 231 232 234 235 236 237 238 239 241 242 244 245 247 248 249 250 252 252 253 255 257 260 263 266
191 196 200 204 206 207 208 212 216 219 223 225 227 229 226 228 230 232 233 233 233 233 234 234 236 237 238 240 241 243 245 246 248 249 250 251 251 252 253 254 256 259 262 265
196 199 203 206 206 207 209 212 217 221 224 228 228 231 228 229 231 232 233 234 234 234 234 235 236 237 239 241 242 243 245 247 248 249 250 251 252 253 254 255 258 260 262 264
197 201 204 205 205 207 210 214 219 222 226 230 230 233 231 229 231 232 233 234 235 235 235 235 237 238 240 241 242 243 245 247 248 249 251 252 254 255 256 258 259 261 263 264
209 208 206 205 206 208 213 216 220 225 230 233 233 235 234 233 233 234 235 235 236 237 238 237 238 238 240 241 242 245 247 248 249 251 252 253 255 257 258 259 260 262 263 265
216 211 210 209 209 212 215 219 224 229 232 237 237 237 237 237 236 236 238 238 239 240 241 241 241 241 242 243 244 246 248 250 251 252 254 255 257 258 259 259 261 262 264 265
226 221 217 216 217 218 221 224 228 231 236 241 241 240 240 237 239 240 241 242 242 243 244 245 245 245 245 245 247 248 249 251 253 254 255 256 257 258 259 260 261 263 264 266
237 231 225 224 223 225 227 229 232 235 238 242 244 242 241 242 241 242 244 244 245 245 245 246 247 248 247 248 248 249 251 252 254 256 257 257 258 259 261 262 262 264 265 266
246 241 233 230 229 230 231 233 235 237 240 243 246 245 244 246 244 244 244 245 245 246 247 248 248 249 250 250 250 251 252 253 255 256 257 258 259 260 261 262 263 264 265 266
254 250 245 241 236 235 236 237 239 241 244 246 247 247 246 249 247 245 245 245 246 247 248 250 251 251 252 252 252 253 253 254 256 257 258 259 260 261 262 263 264 264 265 266
260 256 254 251 246 243 242 241 243 245 248 250 249 248 249 250 247 246 246 246 247 249 250 251 253 254 255 255 256 256 256 256 257 259 260 260 261 262 262 263 264 264 265 266
264 261 258 254 250 248 245 243 245 247 251 252 250 248 247 250 249 248 248 248 249 250 251 253 254 256 256 257 258 258 259 259 260 261 261 262 262 263 264 264 265 265 266 266
269 265 261 256 254 252 249 248 249 252 253 254 254 251 250 251 252 251 251 250 251 252 252 254 255 256 257 257 258 259 260 261 262 262 263 263 263 264 264 265 265 265 266 266
274 270 265 261 256 255 254 254 254 254 255 255 255 254 252 252 253 253 252 251 252 253 253 254 255 256 257 257 258 260 260 261 262 262 263 263 263 264 264 264 265 265 265 266
277 271 268 266 261 258 259 256 256 255 255 256 256 255 255 255 255 255 254 252 252 253 253 253 254 255 256 257 259 259 260 261 262 263 263 264 264 264 264 263 264 264 264 264
278 272 269 266 265 264 260 257 257 256 254 255 255 255 256 256 256 255 254 253 254 254 254 254 254 255 256 258 258 258 259 261 262 262 263 264 264 264 263 263 263 263 263 263
282 274 269 266 265 266 264 261 260 258 256 254 255 256 256 255 255 253 253 253 253 254 254 254 254 255 256 256 257 258 259 259 261 262 263 263 263 264 264 263 263 262 262 262
286 277 271 267 266 267 265 263 260 259 258 256 256 255 255 254 254 253 253 253 253 252 253 253 254 254 254 255 256 257 257 258 260 262 263 263 263 263 263 263 262 261 261 261
287 281 274 268 266 267 264 262 260 259 258 258 256 255 255 255 254 254 254 254 253 251 252 252 252 253 254 255 256 257 257 258 260 261 262 263 263 263 263 263 262 261 261 261
286 282 277 270 266 264 262 260 258 257 257 257 256 255 254 254 254 254 254 253 252 251 251 251 251 252 253 255 256 257 258 259 259 261 262 263 263 264 263 263 262 261 261 261
286 280 275 269 265 262 260 260 256 255 255 255 255 255 254 253 253 253 253 252 251 251 251 251 251 251 252 254 256 257 259 259 261 262 262 262 263 263 263 263 262 261 261 261
289 278 272 267 263 261 258 260 256 254 253 253 255 255 255 254 254 253 253 252 253 253 252 252 252 252 253 254 256 258 258 260 260 261 262 262 263 262 261 261 261 262 261 261
292 282 275 269 263 260 257 258 258 255 253 252 252 254 255 256 255 253 252 252 253 254 253 253 253 253 254 255 257 258 259 259 259 260 261 262 262 262 262 262 261 261 261 261
Height
5654 5662 5668 5675 5682 5689 5696 5703 5709 5715 5721 5727 5732 5738 5743 5748 5754 5760 5765 5771 5777 5783 5788 5793 5798 5802 5806 5810 5813 5817 5819 5822 5824 5826 5828 5830 5832 5834 5835 5836 5836 5837 5838 5838
5656 5661 5667 5672 5679 5685 5692 5698 5704 5710 5716 5721 5726 5732 5737 5742 5748 5753 5758 5764 5769 5774 5780 5785 5789 5794 5798 5801 5805 5808 5811 5814 5816 5818 5820 5822 5824 5825 5826 5827 5828 5829 5830 5830
5656 5661 5665 5671 5677 5683 5689 5695 5701 5707 5711 5716 5721 5726 5731 5736 5741 5746 5751 5757 5761 5766 5772 5776 5781 5785 5789 5793 5796 5799 5802 5805 5807 5809 5811 5813 5814 5816 5817 5818 5819 5820 5821 5821
5657 5661 5665 5669 5675 5681 5686 5692 5697 5702 5707 5711 5716 5721 5727 5730 5735 5740 5745 5749 5754 5759 5763 5768 5772 5776 5780 5783 5787 5790 5793 5795 5798 5800 5802 5804 5805 5807 5808 5809 5810 5811 5812 5812
5658 5661 5664 5669 5673 5678 5684 5689 5694 5698 5702 5706 5710 5715 5721 5724 5729 5734 5738 5742 5746 5750 5754 5758 5762 5766 5770 5773 5777 5780 5783 5786 5788 5790 5792 5794 5796 5797 5798 5800 5801 5802 5802 5803
5659 5661 5664 5667 5672 5676 5681 5687 5690 5694 5697 5701 5706 5709 5715 5720 5724 5727 5730 5733 5737 5740 5744 5748 5752 5756 5760 5764 5767 5770 5773 5776 5778 5780 5782 5784 5786 5787 5788 5789 5790 5791 5792 5793
5659 5661 5663 5666 5670 5674 5679 5684 5688 5690 5692 5697 5701 5703 5710 5714 5717 5720 5722 5725 5728 5731 5735 5739 5743 5747 5750 5754 5757 5760 5763 5766 5768 5770 5772 5774 5776 5777 5778 5779 5780 5781 5782 5783
5660 5662 5663 5665 5669 5673 5676 5681 5685 5688 5690 5693 5696 5698 5705 5708 5710 5712 5715 5717 5720 5723 5727 5730 5734 5737 5740 5744 5747 5750 5753 5755 5758 5760 5762 5763 5765 5767 5768 5769 5770 5771 5771 5772
5660 5661 5663 5665 5667 5671 5674 5677 5680 5683 5685 5687 5690 5694 5698 5701 5703 5705 5708 5710 5713 5716 5719 5721 5724 5728 5731 5734 5737 5740 5743 5745 5747 5749 5751 5753 5754 5756 5757 5758 5759 5760 5760 5761
5660 5661 5662 5663 5666 5668 5671 5674 5676 5678 5680 5682 5685 5688 5692 5694 5696 5698 5700 5703 5705 5708 5711 5713 5716 5719 5722 5725 5727 5730 5733 5735 5737 5739 5740 5742 5743 5745 5746 5747 5748 5748 5749 5749
5659 5660 5661 5662 5664 5666 5668 5670 5672 5673 5675 5678 5679 5685 5685 5687 5689 5691 5693 5695 5698 5700 5703 5705 5708 5710 5713 5715 5718 5720 5723 5725 5727 5728 5730 5731 5732 5733 5734 5735 5736 5737 5737 5738
5658 5658 5658 5660 5661 5662 5663 5665 5667 5669 5670 5672 5673 5679 5679 5680 5682 5684 5686 5688 5690 5692 5695 5697 5699 5702 5704 5706 5708 5711 5712 5714 5716 5718 5719 5720 5721 5722 5723 5724 5725 5725 5726 5726
5655 5655 5656 5656 5659 5659 5659 5660 5662 5663 5664 5665 5667 5673 5672 5674 5675 5676 5678 5680 5682 5684 5687 5689 5691 5693 5695 5697 5699 5700 5702 5704 5706 5707 5708 5709 5710 5711 5712 5713 5713 5714 5714 5715
5651 5651 5652 5653 5652 5653 5654 5655 5656 5657 5657 5659 5662 5665 5666 5667 5667 5669 5671 5673 5675 5677 5679 5681 5682 5684 5686 5688 5689 5691 5692 5694 5695 5696 5697 5698 5699 5700 5701 5701 5702 5702 5703 5703
5645 5646 5646 5646 5646 5647 5648 5649 5650 5650 5652 5653 5655 5657 5659 5659 5660 5661 5663 5665 5667 5669 5671 5672 5674 5675 5677 5678 5680 5681 5682 5683 5685 5686 5686 5687 5688 5689 5689 5690 5690 5691 5691 5692
5639 5639 5639 5640 5640 5640 5641 5643 5643 5644 5645 5646 5647 5650 5652 5651 5652 5654 5656 5657 5659 5661 5663 5664 5666 5667 5668 5669 5670 5672 5673 5674 5675 5675 5676 5677 5677 5678 5678 5679 5679 5680 5680 5680
5633 5632 5632 5632 5633 5632 5634 5637 5637 5637 5639 5639 5640 5644 5643 5644 5645 5647 5648 5650 5651 5653 5654 5656 5657 5658 5659 5661 5662 5663 5664 5665 5665 5666 5666 5667 5667 5668 5668 5668 5669 5669 5670 5670
5627 5625 5625 5625 5626 5625 5630 5629 5629 5629 5631 5631 5632 5634 5635 5636 5638 5639 5640 5642 5643 5644 5646 5647 5648 5649 5651 5652 5653 5654 5655 5655 5656 5656 5657 5657 5657 5658 5658 5658 5659 5659 5660 5660
5620 5619 5618 5618 5617 5618 5621 5621 5621 5621 5623 5624 5625 5626 5627 5628 5630 5631 5632 5633 5635 5636 5637 5638 5640 5641 5642 5643 5644 5645 5646 5646 5647 5647 5647 5648 5648 5648 5648 5649 5649 5650 5650 5651
5613 5612 5612 5611 5610 5611 5615 5614 5613 5614 5615 5616 5617 5618 5619 5621 5623 5624 5624 5626 5627 5628 5629 5630 5631 5633 5634 5635 5635 5636 5637 5638 5638 5638 5639 5639 5639 5639 5640 5640 5640 5641 5641 5642
5606 5605 5604 5603 5602 5603 5606 5605 5606 5608 5609 5608 5609 5610 5611 5613 5615 5616 5616 5618 5619 5620 5621 5622 5623 5625 5626 5626 5627 5628 5629 5629 5630 5630 5630 5631 5631 5631 5631 5632 5632 5632 5633 5633
5599 5597 5596 5596 5595 5599 5597 5597 5599 5599 5600 5600 5601 5602 5604 5605 5606 5607 5608 5609 5611 5612 5613 5614 5616 5617 5618 5619 5619 5620 5621 5621 5622 5622 5622 5623 5623 5623 5623 5624 5624 5624 5625 5625
5591 5590 5589 5589 5591 5590 5589 5589 5590 5591 5592 5593 5594 5595 5596 5597 5598 5599 5601 5602 5603 5604 5605 5606 5608 5609 5610 5611 5612 5612 5613 5614 5614 5614 5615 5615 5615 5615 5615 5616 5616 5616 5617 5617
5583 5581 5580 5580 5581 5581 5581 5581 5582 5582 5583 5585 5586 5587 5588 5590 5591 5592 5593 5594 5595 5596 5597 5598 5600 5601 5602 5603 5604 5604 5605 5606 5606 5606 5607 5607 5607 5607 5607 5608 5608 5608 5609 5609
5573 5571 5570 5570 5572 5572 5573 5572 5573 5574 5575 5577 5578 5579 5581 5582 5583 5584 5585 5586 5588 5589 5590 5590 5592 5593 5594 5595 5596 5596 5597 5598 5598 5598 5599 5599 5599 5599 5600 5600 5600 5601 5601 5602
5565 5563 5562 5562 5563 5562 5563 5563 5564 5565 5566 5568 5570 5572 5573 5574 5575 5576 5577 5578 5580 5581 5582 5583 5584 5585 5586 5587 5588 5588 5589 5589 5590 5590 5591 5591 5592 5592 5592 5592 5593 5593 5593 5594